Flag for Switzerland Weather past 2 weeks in Geneva, Geneva, Switzerland

Now
68 °F

Mild.


Feels Like: 68 °F
Forecast: 48 / 69 °F
Wind: 3 mph from Southwest

Location: Geneve-Cointrin

Current Time: Sep 3, 2015 at 5:12:44 PM

Latest Report: Sep 3, 2015 at 4:00 PM


Visibility: N/A

Pressure: 29.94 "Hg

Humidity: 48%

Dew point: 48 °F

Location of GenevaLocation

Historic Weather in Geneva — Graph

°F

Geneva temperature yesterday

Maximum temperature yesterday: 72 °F (at 3:00 PM)
Minimum temperature yesterday: 56 °F (at 7:00 AM)
Average temperature yesterday: 65 °F

Past Weeks' High & Low Weather Summary

 TemperatureHumidityPressure
High89 °F (Aug 30, 6:00 PM)94% (Aug 24, 5:00 AM)30.25 "Hg (Aug 24, 5:00 AM)
Low49 °F (Aug 20, 7:00 AM)26% (Aug 25, 4:00 PM)29.73 "Hg (Aug 24, 4:00 AM)
Average68 °F65%30.02 "Hg
* Reported Aug 19 3:00 PM — Sep 3 3:00 PM, Geneva, Weather by CustomWeather, © 2015

Note: Actual official high and low records may vary slightly from our data, if they occured in-between our weather recording intervals... More about our weather records

Advertising

Geneva weather history for previous 24 hours

 ConditionsComfort  
Time TempWeatherWind HumidityBarometerVisibility
3:00 PM
Thu, Sep 3
67 °FMild.5 mph52%29.96 "HgN/A
2:00 PM66 °FOvercast.5 mph54%29.96 "Hg37 mi
1:00 PM65 °FMild.3 mph57%29.97 "HgN/A
12:00 PM64 °FMild.1 mph61%29.97 "HgN/A
11:00 AM63 °FPartly sunny.2 mph64%29.98 "Hg37 mi
10:00 AM62 °FCool.2 mph67%29.98 "HgN/A
9:00 AM58 °FCool.2 mph79%30.00 "HgN/A
8:00 AM56 °FPartly sunny.3 mph82%29.99 "Hg31 mi
7:00 AM54 °FCool.2 mph86%29.99 "HgN/A
5:00 AM55 °FPassing clouds.3 mph87%29.98 "Hg25 mi
4:00 AM58 °FCool.1 mph86%29.98 "HgN/A
3:00 AM59 °FCool.3 mph81%29.98 "HgN/A
2:00 AM60 °FPassing clouds.No wind80%29.98 "Hg31 mi
1:00 AM62 °FCool.2 mph76%29.98 "HgN/A
12:00 AM62 °FCool.3 mph74%29.98 "HgN/A
10:00 PM
Wed, Sep 2
64 °FMild.3 mph60%29.97 "HgN/A
9:00 PM67 °FMild.5 mph54%29.96 "HgN/A
8:00 PM67 °FPartly sunny.5 mph54%29.94 "Hg31 mi
7:00 PM69 °FMild.5 mph54%29.94 "HgN/A
6:00 PM71 °FMild.6 mph51%29.93 "HgN/A
5:00 PM70 °FScattered clouds.3 mph53%29.93 "Hg43 mi
Weather by CustomWeather, © 2015

See weather overviewHow to use our weather pages